Location: Waco, TX
(31.5481°N, 97.1672°W)
Time: 14:23:18
(UTC-06:00)

ISS - Visible Passes

Search period start: 24 November 2017 00:00
Search period end: 04 December 2017 00:00
Orbit: 401 x 407 km, 51.6° (Epoch: 25 November)

Date Brightness Start Highest point End Pass type
(mag) Time Alt. Az. Time Alt. Az. Time Alt. Az.
24 Nov -2.7 19:13:03 10° SW 19:15:23 43° SW 19:15:23 43° SW visible
25 Nov -3.2 18:20:56 10° SSW 18:24:01 40° SE 18:25:36 23° ENE visible
26 Nov -2.2 19:05:13 10° WSW 19:08:06 28° NW 19:08:24 28° NNW visible
27 Nov -3.4 18:12:25 10° SW 18:15:39 61° NW 18:18:26 13° NE visible
28 Nov -1.2 18:58:22 10° WNW 18:59:59 13° NNW 19:01:02 12° NNW visible
29 Nov -1.8 18:04:44 10° W 18:07:25 23° NW 18:10:05 10° NNE visible
01 Dec -1.1 17:58:19 10° NW 17:59:17 11° NNW 18:00:14 10° NNW visible
